DW3807 Weather Reports


Display with metric or nautical units.
time (UTC)temp
F
wind
direction
speed
MPH
gust
MPH
rain 1hr
in
rain 24hr
in
rain mn
in
humidity
%
barometer
mb
20260509053020 45 322 1.0 2.0 0.00 0.00 0.00 61 1005.9
20260509052521 45 320 2.0 3.0 0.00 0.00 0.00 62 1005.9
20260509052020 45 332 1.0 2.0 0.00 0.00 0.00 62 1005.9
20260509051519 45 320 1.0 2.0 0.00 0.00 0.00 62 1006.0
20260509051020 44 309 1.0 2.0 0.00 0.00 0.00 63 1006.1
20260509050522 44 318 1.0 2.0 0.00 0.00 0.00 64 1006.1
20260509050020 43 302 1.0 2.0 0.00 0.00 0.00 65 1006.1
20260509045520 43 298 0.0 1.0 0.00 0.00 0.00 66 1006.2
20260509045020 44 311 0.0 1.0 0.00 0.00 0.00 66 1006.2
20260509044522 44 268 0.0 1.0 0.00 0.00 0.00 67 1006.3
20260509044020 44 243 0.0 1.0 0.00 0.00 0.00 68 1006.4
20260509043520 44 264 0.0 1.0 0.00 0.00 0.00 67 1006.4
20260509043022 45 276 0.0 1.0 0.00 0.00 0.00 67 1006.4
20260509042518 45 274 0.0 1.0 0.00 0.00 0.00 67 1006.4
20260509042018 44 289 1.0 1.0 0.00 0.00 0.00 67 1006.4
20260509041521 45 296 0.0 2.0 0.00 0.00 0.00 68 1006.4
20260509041022 45 262 0.0 1.0 0.00 0.00 0.00 68 1006.5
20260509040521 45 264 0.0 1.0 0.00 0.00 0.00 68 1006.5
20260509040021 45 248 0.0 1.0 0.00 0.00 0.00 68 1006.6
20260509035521 45 242 0.0 2.0 0.00 0.00 0.00 69 1006.6
20260509035022 45 240 0.0 2.0 0.00 0.00 0.00 68 1006.6
20260509034518 45 266 0.0 1.0 0.00 0.00 0.00 66 1006.6
20260509034018 45 265 0.0 1.0 0.00 0.00 0.00 67 1006.6
20260509033523 45 242 0.0 1.0 0.00 0.00 0.00 67 1006.7
20260509033021 45 231 0.0 2.0 0.00 0.00 0.00 67 1006.7
20260509032521 45 261 0.0 1.0 0.00 0.00 0.00 66 1006.8
20260509032021 46 244 1.0 2.0 0.00 0.00 0.00 65 1006.8
20260509031523 46 257 1.0 2.0 0.00 0.00 0.00 64 1006.9
20260509031038 46 259 1.0 2.0 0.00 0.00 0.00 63 1007.0
20260509030518 46 228 1.0 2.0 0.00 0.00 0.00 62 1007.0
20260509030019 46 248 0.0 1.0 0.00 0.00 0.00 61 1007.1
20260509025521 46 255 1.0 1.0 0.00 0.00 0.00 61 1007.2
20260509025019 46 261 0.0 1.0 0.00 0.00 0.00 60 1007.2
20260509024525 46 289 0.0 1.0 0.00 0.00 0.00 60 1007.2
20260509024027 46 306 1.0 1.0 0.00 0.00 0.00 62 1007.3
20260509023539 47 269 1.0 1.0 0.00 0.00 0.00 62 1007.3
20260509023019 47 266 1.0 1.0 0.00 0.00 0.00 63 1007.3
20260509022519 47 253 1.0 1.0 0.00 0.00 0.00 62 1007.3
20260509022020 47 243 1.0 2.0 0.00 0.00 0.00 61 1007.4
20260509021519 48 239 1.0 1.0 0.00 0.00 0.00 60 1007.4
20260509021019 48 219 1.0 2.0 0.00 0.00 0.00 58 1007.4
20260509020520 48 245 1.0 1.0 0.00 0.00 0.00 57 1007.3
20260509020021 49 223 1.0 2.0 0.00 0.00 0.00 55 1007.3
20260509015520 49 211 1.0 2.0 0.00 0.00 0.00 55 1007.3
20260509015019 49 233 1.0 2.0 0.00 0.00 0.00 54 1007.3
20260509014522 50 242 1.0 1.0 0.00 0.00 0.00 53 1007.2
20260509014017 50 233 1.0 1.0 0.00 0.00 0.00 51 1007.2
20260509013520 51 231 1.0 2.0 0.00 0.00 0.00 51 1007.1
20260509013021 52 216 1.0 2.0 0.00 0.00 0.00 51 1007.1
20260509012521 52 238 1.0 1.0 0.00 0.00 0.00 49 1007.0
20260509012039 52 258 0.0 1.0 0.00 0.00 0.00 45 1007.1
20260509011520 53 247 0.0 1.0 0.00 0.00 0.00 43 1007.1
20260509011040 53 272 0.0 1.0 0.00 0.00 0.00 43 1007.1
20260509010521 53 263 1.0 1.0 0.00 0.00 0.00 43 1007.1
20260509010017 54 235 1.0 2.0 0.00 0.00 0.00 41 1007.1
20260509005517 54 222 1.0 2.0 0.00 0.00 0.00 40 1007.1
20260509005019 55 239 1.0 2.0 0.00 0.00 0.00 39 1007.1
20260509004518 55 255 0.0 1.0 0.00 0.00 0.00 38 1007.1
20260509004021 56 282 1.0 1.0 0.00 0.00 0.00 38 1007.1
20260509003520 56 292 1.0 1.0 0.00 0.00 0.00 37 1007.2
20260509003103 57 294 0.0 1.0 0.00 0.00 0.00 37 1007.2
20260509002521 57 252 0.0 1.0 0.00 0.00 0.00 37 1007.2
20260509002020 58 286 0.0 2.0 0.00 0.00 0.00 36 1007.2
20260509001518 58 84 0.0 2.0 0.00 0.00 0.00 36 1007.3
20260509001019 59 143 0.0 2.0 0.00 0.00 0.00 36 1007.4
20260509000517 59 131 1.0 2.0 0.00 0.00 0.00 36 1007.4
20260509000018 60 293 1.0 3.0 0.00 0.00 0.00 36 1007.4
20260508235540 60 293 1.0 4.0 0.00 0.00 0.00 36 1007.4
20260508235018 61 318 2.0 4.0 0.00 0.00 0.00 35 1007.5
20260508234519 61 73 1.0 4.0 0.00 0.00 0.00 36 1007.6
20260508234018 61 159 1.0 2.0 0.00 0.00 0.00 35 1007.6
20260508233520 62 310 1.0 5.0 0.00 0.00 0.00 35 1007.6
20260508233018 62 307 1.0 6.0 0.00 0.00 0.00 35 1007.6
20260508232538 63 320 2.0 6.0 0.00 0.00 0.00 34 1007.6
20260508232019 63 279 2.0 5.0 0.00 0.00 0.00 34 1007.6
20260508231540 64 306 2.0 6.0 0.00 0.00 0.00 34 1007.5
20260508231040 64 297 2.0 8.0 0.00 0.00 0.00 33 1007.5
20260508230542 64 319 2.0 4.0 0.00 0.00 0.00 34 1007.6
20260508230021 64 323 2.0 7.0 0.00 0.00 0.00 34 1007.5
20260508225519 64 318 2.0 5.0 0.00 0.00 0.00 34 1007.4
20260508225019 64 339 2.0 6.0 0.00 0.00 0.00 34 1007.5
20260508224539 64 315 2.0 7.0 0.00 0.00 0.00 34 1007.5
20260508224021 64 332 2.0 6.0 0.00 0.00 0.00 34 1007.5
20260508223519 65 292 2.0 7.0 0.00 0.00 0.00 34 1007.5
20260508223019 64 358 2.0 5.0 0.00 0.00 0.00 34 1007.5
20260508222519 64 282 2.0 6.0 0.00 0.00 0.00 33 1007.5
20260508222021 65 295 2.0 7.0 0.00 0.00 0.00 33 1007.5
20260508221519 65 297 3.0 5.0 0.00 0.00 0.00 33 1007.5
20260508221019 64 291 2.0 4.0 0.00 0.00 0.00 34 1007.5
20260508220522 64 302 3.0 6.0 0.00 0.00 0.00 34 1007.5
20260508220020 64 330 2.0 9.0 0.00 0.00 0.00 34 1007.6
20260508215540 64 302 3.0 7.0 0.00 0.00 0.00 33 1007.6
20260508215020 64 309 3.0 6.0 0.00 0.00 0.00 33 1007.6
20260508214522 64 305 3.0 8.0 0.00 0.00 0.00 34 1007.5
20260508214040 64 313 3.0 9.0 0.00 0.00 0.00 33 1007.6
20260508213520 63 307 3.0 7.0 0.00 0.00 0.00 33 1007.6
20260508213018 64 295 4.0 10.0 0.00 0.00 0.00 33 1007.6
20260508212519 64 311 3.0 11.0 0.00 0.00 0.00 34 1007.6
20260508212017 64 294 3.0 8.0 0.00 0.00 0.00 34 1007.6
20260508211537 64 308 4.0 9.0 0.00 0.00 0.00 34 1007.6
20260508211019 63 298 3.0 8.0 0.00 0.00 0.00 35 1007.7
20260508210540 64 313 4.0 9.0 0.00 0.00 0.00 35 1007.6
20260508210021 64 302 3.0 9.0 0.00 0.00 0.00 35 1007.7
20260508205521 64 313 3.0 8.0 0.00 0.00 0.00 35 1007.8
20260508205042 64 310 3.0 9.0 0.00 0.00 0.00 34 1007.8
20260508204518 64 259 2.0 6.0 0.00 0.00 0.00 34 1007.8
20260508204038 64 297 2.0 6.0 0.00 0.00 0.00 35 1007.9
20260508203518 64 302 4.0 8.0 0.00 0.00 0.00 35 1007.9
20260508203040 64 336 3.0 8.0 0.00 0.00 0.00 35 1008.0
20260508202518 64 299 3.0 7.0 0.00 0.00 0.00 34 1008.0
20260508202018 64 282 3.0 8.0 0.00 0.00 0.00 34 1008.0
20260508201523 64 307 3.0 8.0 0.00 0.00 0.00 35 1008.1
20260508201021 64 308 4.0 11.0 0.00 0.00 0.00 34 1008.1
20260508200518 65 322 4.0 11.0 0.00 0.00 0.00 35 1008.2
20260508200059 65 321 3.0 8.0 0.00 0.00 0.00 35 1008.3
20260508195520 64 308 3.0 7.0 0.00 0.00 0.00 35 1008.4
20260508195019 64 314 3.0 8.0 0.00 0.00 0.00 36 1008.4
20260508194519 64 323 3.0 7.0 0.00 0.00 0.00 36 1008.4
20260508194018 64 319 4.0 9.0 0.00 0.00 0.00 36 1008.4
20260508193520 64 329 3.0 9.0 0.00 0.00 0.00 36 1008.5
20260508193018 64 322 4.0 7.0 0.00 0.00 0.00 35 1008.6
20260508192518 64 325 3.0 8.0 0.00 0.00 0.00 35 1008.6
20260508192102 64 310 3.0 9.0 0.00 0.00 0.00 35 1008.6
20260508191519 64 304 3.0 7.0 0.00 0.00 0.00 35 1008.6
20260508191020 64 313 3.0 10.0 0.00 0.00 0.00 35 1008.7
20260508190518 64 291 3.0 10.0 0.00 0.00 0.00 35 1008.7
20260508190018 64 313 3.0 8.0 0.00 0.00 0.00 36 1008.8
20260508185519 64 337 3.0 9.0 0.00 0.00 0.00 36 1008.9
20260508185020 64 310 3.0 8.0 0.00 0.00 0.00 35 1008.9
20260508184518 63 297 3.0 8.0 0.00 0.00 0.00 36 1008.9
20260508184039 64 304 4.0 9.0 0.00 0.00 0.00 36 1009.0
20260508183540 64 322 3.0 8.0 0.00 0.00 0.00 37 1009.0
20260508183019 64 311 3.0 7.0 0.00 0.00 0.00 36 1009.0
20260508182519 64 311 3.0 9.0 0.00 0.00 0.00 37 1009.1
20260508182019 64 311 2.0 7.0 0.00 0.00 0.00 37 1009.2
20260508181521 63 322 3.0 9.0 0.00 0.00 0.00 37 1009.2
20260508181019 63 327 3.0 6.0 0.00 0.00 0.00 38 1009.3
20260508180519 63 350 3.0 9.0 0.00 0.00 0.00 37 1009.4
20260508180037 63 324 4.0 9.0 0.00 0.00 0.00 38 1009.4
20260508175538 63 305 3.0 9.0 0.00 0.00 0.00 38 1009.5
20260508175037 62 313 3.0 12.0 0.00 0.00 0.00 38 1009.6
20260508174519 62 342 3.0 6.0 0.00 0.00 0.00 38 1009.7
20260508174021 62 328 4.0 11.0 0.00 0.00 0.00 38 1009.8
20260508173520 62 295 5.0 9.0 0.00 0.00 0.00 38 1009.8
20260508173020 63 301 4.0 9.0 0.00 0.00 0.00 38 1009.9
20260508172520 63 300 4.0 7.0 0.00 0.00 0.00 38 1010.0
20260508172059 63 17 3.0 8.0 0.00 0.00 0.00 38 1010.1
20260508171517 63 338 2.0 6.0 0.00 0.00 0.00 39 1010.2
20260508171017 62 145 2.0 6.0 0.00 0.00 0.00 39 1010.2
20260508170517 62 160 2.0 8.0 0.00 0.00 0.00 40 1010.3
20260508170022 61 94 3.0 6.0 0.00 0.00 0.00 41 1010.5
20260508165520 61 39 3.0 6.0 0.00 0.00 0.00 42 1010.5
20260508165020 60 353 3.0 8.0 0.00 0.00 0.00 42 1010.6
20260508164539 61 343 4.0 9.0 0.00 0.00 0.00 41 1010.7
20260508164018 61 305 3.0 9.0 0.00 0.00 0.00 42 1010.9
20260508163518 61 21 3.0 6.0 0.00 0.00 0.00 41 1010.9
20260508163020 61 4 3.0 6.0 0.00 0.00 0.00 41 1011.0
20260508162520 61 336 3.0 9.0 0.00 0.00 0.00 42 1011.0
20260508162018 60 103 2.0 6.0 0.00 0.00 0.00 41 1011.0
20260508161558 61 293 3.0 7.0 0.00 0.00 0.00 42 1011.0
20260508161101 61 323 2.0 7.0 0.00 0.00 0.00 41 1011.1
20260508160520 61 308 2.0 5.0 0.00 0.00 0.00 41 1011.1
20260508160058 62 345 3.0 8.0 0.00 0.00 0.00 43 1011.0
20260508155518 60 121 2.0 6.0 0.00 0.00 0.00 42 1011.0
20260508155040 59 24 2.0 6.0 0.00 0.00 0.00 43 1011.1
20260508154518 59 329 2.0 7.0 0.00 0.00 0.00 44 1011.1
20260508154019 60 329 4.0 8.0 0.00 0.00 0.00 43 1011.2
20260508153518 60 31 3.0 7.0 0.00 0.00 0.00 44 1011.2
20260508153020 60 162 2.0 6.0 0.00 0.00 0.00 43 1011.2
20260508152519 59 176 3.0 7.0 0.00 0.00 0.00 44 1011.2
20260508152019 59 141 3.0 6.0 0.00 0.00 0.00 47 1011.3
20260508151519 58 141 2.0 6.0 0.00 0.00 0.00 49 1011.3
20260508151022 58 34 3.0 7.0 0.00 0.00 0.00 52 1011.4
20260508150519 58 10 3.0 6.0 0.00 0.00 0.00 54 1011.5
20260508150039 57 144 2.0 5.0 0.00 0.00 0.00 54 1011.6
20260508145521 56 98 2.0 5.0 0.00 0.00 0.00 58 1011.6
20260508145039 57 84 3.0 6.0 0.00 0.00 0.00 56 1011.6
20260508144519 58 73 3.0 6.0 0.00 0.00 0.00 55 1011.6
20260508144040 58 124 3.0 8.0 0.00 0.00 0.00 54 1011.6
20260508143518 58 84 2.0 5.0 0.00 0.00 0.00 59 1011.6
20260508143019 58 74 2.0 7.0 0.00 0.00 0.00 59 1011.7
20260508142519 59 86 3.0 7.0 0.00 0.00 0.00 57 1011.8
20260508142019 58 189 2.0 4.0 0.00 0.00 0.00 58 1011.8
20260508141521 58 141 1.0 3.0 0.00 0.00 0.00 59 1011.9
20260508141040 58 181 2.0 6.0 0.00 0.00 0.00 61 1011.9
20260508140520 57 161 2.0 6.0 0.00 0.00 0.00 63 1011.9
20260508140022 56 282 2.0 6.0 0.00 0.00 0.00 66 1011.9
20260508135521 56 228 1.0 4.0 0.00 0.00 0.00 66 1011.9
20260508135021 56 250 1.0 4.0 0.00 0.00 0.00 67 1011.9
20260508134518 56 167 2.0 6.0 0.00 0.00 0.00 67 1012.0
20260508134019 56 168 2.0 6.0 0.00 0.00 0.00 68 1012.0
20260508133518 56 167 2.0 5.0 0.00 0.00 0.00 70 1012.0
20260508133018 55 189 1.0 4.0 0.00 0.00 0.00 72 1012.0
20260508132518 54 164 2.0 6.0 0.00 0.00 0.00 73 1012.1
20260508132019 54 183 1.0 3.0 0.00 0.00 0.00 74 1012.1
20260508131517 53 171 1.0 4.0 0.00 0.00 0.00 75 1012.1
20260508131017 53 180 2.0 4.0 0.00 0.00 0.00 75 1012.1
20260508130521 53 175 1.0 4.0 0.00 0.00 0.00 77 1012.1
20260508130019 52 170 2.0 4.0 0.00 0.00 0.00 79 1012.2
20260508125518 52 210 1.0 3.0 0.00 0.00 0.00 82 1012.2
20260508125021 51 180 1.0 2.0 0.00 0.00 0.00 83 1012.2
20260508124524 50 222 1.0 2.0 0.00 0.00 0.00 84 1012.3
20260508124020 49 210 1.0 3.0 0.00 0.00 0.00 84 1012.3
20260508123518 48 228 1.0 3.0 0.00 0.00 0.00 87 1012.2
20260508123018 48 245 1.0 2.0 0.00 0.00 0.00 87 1012.2
20260508122520 47 240 1.0 2.0 0.00 0.00 0.00 88 1012.1
20260508122019 47 244 1.0 2.0 0.00 0.00 0.00 89 1012.0
20260508121518 46 233 1.0 2.0 0.00 0.00 0.00 90 1011.9
20260508121019 45 225 1.0 2.0 0.00 0.00 0.00 92 1011.8
20260508120519 43 196 0.0 2.0 0.00 0.00 0.00 91 1011.7
20260508120019 43 213 1.0 2.0 0.00 0.00 0.00 91 1011.7
20260508115520 43 224 1.0 2.0 0.00 0.00 0.00 92 1011.7
20260508115022 43 236 1.0 2.0 0.00 0.00 0.00 94 1011.7
20260508114519 41 241 0.0 1.0 0.00 0.00 0.00 95 1011.6
20260508114016 40 230 0.0 2.0 0.00 0.00 0.00 95 1011.5
20260508113517 39 254 1.0 2.0 0.00 0.00 0.00 95 1011.5
20260508113021 39 256 1.0 2.0 0.00 0.00 0.00 95 1011.5
20260508112519 38 256 1.0 2.0 0.00 0.00 0.00 96 1011.4
20260508112019 37 300 0.0 1.0 0.00 0.00 0.00 96 1011.4
20260508111519 36 3 0.0 1.0 0.00 0.00 0.00 96 1011.3
20260508111022 35 296 0.0 1.0 0.00 0.00 0.00 96 1011.4
20260508110519 34 232 1.0 2.0 0.00 0.00 0.00 96 1011.4
20260508110039 34 296 0.0 1.0 0.00 0.00 0.00 96 1011.4
20260508105521 34 330 1.0 2.0 0.00 0.00 0.00 95 1011.4
20260508105019 34 317 0.0 1.0 0.00 0.00 0.00 96 1011.3
20260508104541 34 222 1.0 2.0 0.00 0.00 0.00 96 1011.3
20260508104019 34 226 1.0 2.0 0.00 0.00 0.00 95 1011.2
20260508103541 34 228 1.0 1.0 0.00 0.00 0.00 95 1011.1
20260508103020 34 229 0.0 1.0 0.00 0.00 0.00 95 1011.1
20260508102539 34 310 0.0 1.0 0.00 0.00 0.00 95 1011.0
20260508102021 34 233 1.0 2.0 0.00 0.00 0.00 95 1011.1
20260508101518 34 215 0.0 2.0 0.00 0.00 0.00 94 1011.1
20260508101016 34 283 0.0 1.0 0.00 0.00 0.00 94 1011.1
20260508100517 34 280 1.0 1.0 0.00 0.00 0.00 94 1011.2
20260508100106 34 261 0.0 2.0 0.00 0.00 0.00 94 1011.2
20260508095546 35 250 0.0 1.0 0.00 0.00 0.00 94 1011.2
20260508095020 35 280 0.0 1.0 0.00 0.00 0.00 94 1011.2
20260508094520 35 272 1.0 1.0 0.00 0.00 0.00 94 1011.3
20260508094022 35 285 0.0 1.0 0.00 0.00 0.00 93 1011.3
20260508093521 35 302 0.0 1.0 0.00 0.00 0.00 93 1011.3
20260508093022 35 319 0.0 1.0 0.00 0.00 0.00 93 1011.3
20260508092520 35 295 0.0 1.0 0.00 0.00 0.00 93 1011.4
20260508092019 35 269 0.0 1.0 0.00 0.00 0.00 93 1011.4
20260508091518 36 291 1.0 1.0 0.00 0.00 0.00 93 1011.4
20260508091018 36 244 1.0 1.0 0.00 0.00 0.00 93 1011.4
20260508090521 36 316 0.0 1.0 0.00 0.00 0.00 93 1011.4
20260508090018 36 307 0.0 1.0 0.00 0.00 0.00 93 1011.4
20260508085521 35 346 1.0 2.0 0.00 0.00 0.00 92 1011.3
20260508085021 35 11 1.0 2.0 0.00 0.00 0.00 92 1011.3
20260508084519 35 308 1.0 1.0 0.00 0.00 0.00 92 1011.4
20260508084020 36 330 1.0 1.0 0.00 0.00 0.00 92 1011.4
20260508083558 36 338 1.0 2.0 0.00 0.00 0.00 92 1011.4
20260508083038 36 244 0.0 1.0 0.00 0.00 0.00 92 1011.4
20260508082520 36 289 0.0 1.0 0.00 0.00 0.00 91 1011.4
20260508082018 36 289 0.0 1.0 0.00 0.00 0.00 91 1011.4
20260508081520 36 264 1.0 2.0 0.00 0.00 0.00 91 1011.4
20260508081020 37 243 1.0 2.0 0.00 0.00 0.00 91 1011.4
20260508080519 37 330 1.0 2.0 0.00 0.00 0.00 91 1011.4
20260508080019 37 327 1.0 2.0 0.00 0.00 0.00 91 1011.5
20260508075519 37 291 1.0 1.0 0.00 0.00 0.00 90 1011.5
20260508075039 37 291 1.0 2.0 0.00 0.00 0.00 90 1011.5
20260508074516 37 334 1.0 2.0 0.00 0.00 0.00 90 1011.5
20260508074016 37 343 1.0 1.0 0.00 0.00 0.00 90 1011.6
20260508073516 37 309 1.0 2.0 0.00 0.00 0.00 90 1011.6
20260508073020 37 228 1.0 2.0 0.00 0.00 0.00 90 1011.6
20260508072520 37 252 0.0 1.0 0.00 0.00 0.00 89 1011.7
20260508072019 38 299 1.0 2.0 0.00 0.00 0.00 89 1011.8
20260508071521 38 314 1.0 2.0 0.00 0.00 0.00 89 1011.9
20260508071019 38 254 1.0 2.0 0.00 0.00 0.00 89 1011.9
20260508070520 38 234 1.0 2.0 0.00 0.00 0.00 89 1012.0
20260508070021 38 279 1.0 2.0 0.00 0.00 0.00 88 1012.0
20260508065521 38 258 1.0 2.0 0.00 0.00 0.00 88 1012.1
20260508065020 38 233 1.0 2.0 0.00 0.00 0.00 88 1012.1
20260508064520 38 322 1.0 2.0 0.00 0.00 0.00 88 1012.1
20260508064040 38 295 1.0 2.0 0.00 0.00 0.00 88 1012.2
20260508063523 0 307 1.0 1.0 0.00 0.00 0.00
20260508063019 39 290 1.0 2.0 0.00 0.00 0.00 87 1012.1
20260508062550 39 296 1.0 2.0 0.00 0.00 0.00 87 1012.1
20260508062019 39 285 1.0 2.0 0.00 0.00 0.00 87 1012.1
20260508061517 39 232 2.0 3.0 0.00 0.00 0.00 88 1012.1
20260508061018 40 218 2.0 2.0 0.00 0.00 0.00 87 1012.2
20260508060537 40 253 1.0 2.0 0.00 0.00 0.00 86 1012.3
20260508060039 40 307 1.0 2.0 0.00 0.00 0.00 85 1012.4
20260508055520 40 309 1.0 1.0 0.00 0.00 0.00 85 1012.4
20260508055020 40 286 1.0 1.0 0.00 0.00 0.00 84 1012.3
20260508054519 41 309 1.0 1.0 0.00 0.00 0.00 84 1012.3
20260508054039 41 289 0.0 2.0 0.00 0.00 0.00 84 1012.3
20260508053538 41 259 0.0 1.0 0.00 0.00 0.00 84 1012.2